PDA35H HTZA-UKBB

Flight info

Callsign PDA35H
Flight time N/A
Altitude 39000
Route EGPET UL431 MOV UN301 ALEMU T129 GETOL M308 KONET G650 RASKA DCT EGMEG DCT YEN DCT IVUDA DCT TBK DCT NIKUV DCT BGN DCT MERVA N131 DOREN UA28 MUT UL621 BUK UM861 RAKUR/K0909F390 M856 LAROM M435 MIMKO T219 KONIP
Aircraft A359/H-SDE2E3GHIJ3J4J5LM1ORWXY/LB1D1

Departure

Time 2026-05-04 06:44
Airport Abeid Amani Karume International Airport (HTZA)

Arrival

Time N/A
Airport Boryspil International Airport (UKBB)
Time Latitude Longitude Altitude Speed Heading
2026-05-04 06:37 -6.21755 39.22286 56 ft 0 kts 52°
2026-05-04 06:37 -6.21756 39.22293 55 ft 2 kts 90°
2026-05-04 06:38 -6.21760 39.22338 59 ft 9 kts 95°
2026-05-04 06:38 -6.21759 39.22403 61 ft 9 kts 77°
2026-05-04 06:40 -6.21154 39.22365 58 ft 15 kts 326°
2026-05-04 06:40 -6.21119 39.22376 56 ft 2 kts 86°
2026-05-04 06:40 -6.21121 39.22380 56 ft 0 kts 108°
2026-05-04 06:40 -6.21137 39.22386 56 ft 3 kts 173°
2026-05-04 06:42 -6.21347 39.22406 62 ft 64 kts 174°
2026-05-04 06:42 -6.22002 39.22471 58 ft 123 kts 174°
2026-05-04 06:42 -6.23011 39.22574 216 ft 156 kts 176°
2026-05-04 06:44 -6.31701 39.23732 2893 ft 220 kts 148°
2026-05-04 06:44 -6.32718 39.24930 3026 ft 243 kts 115°
2026-05-04 06:44 -6.32837 39.26671 3352 ft 262 kts 78°
2026-05-04 06:45 -6.31882 39.28250 3881 ft 274 kts 44°
2026-05-04 06:45 -6.30213 39.29187 4464 ft 280 kts 22°
2026-05-04 06:45 -6.28309 39.29657 5042 ft 284 kts 12°
2026-05-04 06:45 -6.26335 39.29940 5585 ft 287 kts
2026-05-04 06:46 -6.24348 39.30202 6120 ft 289 kts 10°
2026-05-04 06:46 -6.22355 39.30524 6658 ft 290 kts 12°
2026-05-04 06:46 -6.20394 39.30916 7177 ft 291 kts 14°
2026-05-04 06:46 -6.18417 39.31374 7718 ft 292 kts 16°
2026-05-04 06:48 -6.04184 39.35142 10651 ft 331 kts 17°
2026-05-04 06:48 -6.01909 39.35742 10835 ft 343 kts 17°
2026-05-04 06:49 -5.99559 39.36359 11009 ft 355 kts 17°
2026-05-04 06:50 -5.81598 39.40060 13161 ft 389 kts
2026-05-04 06:51 -5.78888 39.40306 13525 ft 391 kts
2026-05-04 06:51 -5.76170 39.40539 13876 ft 392 kts
2026-05-04 06:51 -5.73444 39.40770 14183 ft 394 kts
2026-05-04 06:51 -5.70703 39.41007 14482 ft 396 kts
2026-05-04 06:52 -5.67949 39.41249 14795 ft 397 kts
2026-05-04 06:52 -5.65192 39.41495 15106 ft 399 kts
2026-05-04 06:52 -5.62451 39.41742 15416 ft 400 kts
2026-05-04 06:52 -5.59669 39.41995 15721 ft 402 kts
2026-05-04 06:53 -5.56873 39.42249 16021 ft 404 kts
2026-05-04 06:53 -5.54059 39.42505 16317 ft 406 kts
2026-05-04 06:53 -5.51240 39.42761 16632 ft 407 kts
2026-05-04 06:53 -5.48410 39.43017 16950 ft 409 kts
2026-05-04 06:54 -5.45570 39.43275 17247 ft 411 kts
2026-05-04 06:54 -5.42715 39.43534 17557 ft 412 kts
2026-05-04 06:54 -5.39848 39.43793 17846 ft 414 kts
2026-05-04 06:54 -5.36966 39.44054 18143 ft 416 kts
2026-05-04 06:55 -5.34082 39.44316 18404 ft 418 kts
2026-05-04 06:55 -5.31180 39.44578 18653 ft 419 kts
2026-05-04 06:55 -5.28268 39.44842 18877 ft 422 kts
2026-05-04 06:55 -5.25336 39.45108 19090 ft 424 kts
2026-05-04 06:56 -5.22394 39.45374 19320 ft 426 kts
2026-05-04 06:57 -5.01474 39.47266 20951 ft 438 kts
2026-05-04 06:58 -4.98438 39.47541 21163 ft 439 kts
2026-05-04 06:58 -4.95407 39.47815 21375 ft 441 kts
2026-05-04 06:58 -4.92316 39.48095 21580 ft 442 kts
2026-05-04 06:58 -4.89257 39.48372 21787 ft 444 kts
2026-05-04 06:59 -4.86201 39.48648 21998 ft 445 kts
2026-05-04 06:59 -4.83094 39.48929 22204 ft 447 kts
2026-05-04 06:59 -4.79982 39.49210 22403 ft 449 kts
2026-05-04 06:59 -4.76903 39.49489 22604 ft 450 kts
2026-05-04 07:01 -4.55076 39.52927 23861 ft 459 kts 12°
2026-05-04 07:01 -4.51930 39.53527 24026 ft 460 kts 12°
2026-05-04 07:02 -4.48795 39.54123 24184 ft 461 kts 12°
2026-05-04 07:02 -4.45631 39.54722 24337 ft 462 kts 12°
2026-05-04 07:02 -4.42456 39.55321 24495 ft 463 kts 12°
2026-05-04 07:02 -4.39280 39.55919 24641 ft 464 kts 12°
2026-05-04 07:03 -4.36107 39.56516 24777 ft 466 kts 12°
2026-05-04 07:03 -4.32928 39.57114 24936 ft 467 kts 12°
2026-05-04 07:03 -4.29712 39.57718 25094 ft 468 kts 12°
2026-05-04 07:03 -4.26525 39.58318 25251 ft 469 kts 12°
2026-05-04 07:04 -4.23341 39.58916 25419 ft 469 kts 12°
2026-05-04 07:04 -4.20105 39.59525 25574 ft 471 kts 12°
2026-05-04 07:04 -4.16911 39.60126 25719 ft 472 kts 12°
2026-05-04 07:04 -4.13654 39.60738 25870 ft 473 kts 12°
2026-05-04 07:05 -4.10432 39.61344 26016 ft 474 kts 12°
2026-05-04 07:05 -4.07186 39.61955 26168 ft 475 kts 12°
2026-05-04 07:05 -4.03910 39.62571 26331 ft 476 kts 12°
2026-05-04 07:05 -4.00675 39.63179 26478 ft 477 kts 12°
2026-05-04 07:06 -3.94105 39.64260 26783 ft 481 kts
2026-05-04 07:06 -3.90789 39.64582 26938 ft 482 kts
2026-05-04 07:06 -3.87397 39.64866 27095 ft 483 kts
2026-05-04 07:07 -3.84054 39.65121 27249 ft 485 kts
2026-05-04 07:08 -3.60333 39.66870 28381 ft 493 kts
2026-05-04 07:09 -3.56921 39.67127 28531 ft 494 kts
2026-05-04 07:09 -3.53483 39.67386 28703 ft 496 kts
2026-05-04 07:09 -3.51168 39.67561 28800 ft 496 kts
2026-05-04 07:09 -3.47705 39.67821 28954 ft 497 kts
2026-05-04 07:10 -3.44261 39.68081 29096 ft 499 kts
2026-05-04 07:10 -3.40809 39.68340 29251 ft 500 kts
2026-05-04 07:12 -3.16352 39.70177 30243 ft 508 kts
2026-05-04 07:12 -3.12813 39.70443 30346 ft 509 kts
2026-05-04 07:12 -3.09301 39.70707 30492 ft 510 kts
2026-05-04 07:12 -3.05749 39.70974 30630 ft 511 kts
2026-05-04 07:13 -3.02224 39.71239 30758 ft 512 kts
2026-05-04 07:13 -2.98644 39.71508 30889 ft 513 kts
2026-05-04 07:13 -2.95103 39.71774 31018 ft 514 kts
2026-05-04 07:14 -2.80811 39.72847 31554 ft 517 kts
2026-05-04 07:14 -2.77215 39.73117 31727 ft 516 kts
2026-05-04 07:15 -2.73666 39.73383 31896 ft 516 kts
2026-05-04 07:15 -2.70037 39.73655 32065 ft 516 kts
2026-05-04 07:15 -2.66500 39.73920 32238 ft 516 kts
2026-05-04 07:15 -2.62926 39.74188 32434 ft 515 kts
2026-05-04 07:16 -2.59331 39.74450 32670 ft 513 kts
2026-05-04 07:16 -2.55778 39.74700 32870 ft 513 kts
2026-05-04 07:16 -2.52210 39.74947 33062 ft 512 kts
2026-05-04 07:16 -2.48680 39.75190 33260 ft 512 kts
2026-05-04 07:17 -2.45096 39.75437 33467 ft 512 kts
2026-05-04 07:17 -2.41589 39.75680 33658 ft 511 kts
2026-05-04 07:17 -2.38024 39.75927 33885 ft 511 kts
2026-05-04 07:17 -2.34464 39.76175 34102 ft 510 kts
2026-05-04 07:18 -2.30951 39.76420 34281 ft 510 kts
2026-05-04 07:18 -2.27427 39.76665 34502 ft 509 kts
2026-05-04 07:18 -2.23882 39.76911 34744 ft 507 kts
2026-05-04 07:18 -2.20389 39.77154 34980 ft 506 kts
2026-05-04 07:19 -2.16887 39.77398 35211 ft 505 kts
2026-05-04 07:19 -2.13367 39.77643 35450 ft 504 kts
2026-05-04 07:19 -2.09889 39.77885 35677 ft 502 kts
2026-05-04 07:19 -2.06393 39.78129 35913 ft 501 kts
2026-05-04 07:20 -2.02921 39.78370 36153 ft 500 kts
2026-05-04 07:20 -1.99432 39.78613 36383 ft 499 kts
2026-05-04 07:20 -1.95992 39.78853 36601 ft 498 kts
2026-05-04 07:20 -1.92539 39.79093 36802 ft 498 kts
2026-05-04 07:22 -1.68448 39.80736 38203 ft 494 kts
2026-05-04 07:22 -1.65054 39.80957 38369 ft 494 kts
2026-05-04 07:23 -1.61615 39.81181 38542 ft 493 kts
2026-05-04 07:23 -1.58213 39.81403 38727 ft 493 kts
2026-05-04 07:23 -1.54790 39.81627 38874 ft 492 kts
2026-05-04 07:23 -1.51368 39.81851 39003 ft 492 kts
2026-05-04 07:24 -1.44515 39.82301 39032 ft 493 kts
2026-05-04 07:24 -1.37667 39.82750 39035 ft 491 kts
2026-05-04 07:26 -1.10430 39.84536 39034 ft 491 kts
2026-05-04 07:27 -1.03606 39.84984 39037 ft 491 kts
2026-05-04 07:27 -0.96798 39.85430 39028 ft 491 kts
2026-05-04 07:28 -0.89975 39.85878 39030 ft 491 kts
2026-05-04 07:28 -0.83143 39.86325 39032 ft 491 kts
2026-05-04 07:29 -0.76337 39.86771 39030 ft 491 kts
2026-05-04 07:29 -0.69508 39.87219 39027 ft 491 kts
2026-05-04 07:30 -0.62732 39.87663 39031 ft 491 kts
2026-05-04 07:30 -0.55890 39.88112 39030 ft 490 kts
2026-05-04 07:31 -0.49116 39.88555 39023 ft 489 kts
2026-05-04 07:33 -0.21953 39.90548 39023 ft 488 kts
2026-05-04 07:33 -0.15211 39.91173 39029 ft 489 kts
2026-05-04 07:34 -0.08426 39.91790 39024 ft 489 kts
2026-05-04 07:34 -0.01667 39.92397 39029 ft 489 kts
2026-05-04 07:35 0.05086 39.92999 39027 ft 488 kts
2026-05-04 07:35 0.11821 39.93601 39020 ft 487 kts
2026-05-04 07:36 0.18607 39.94208 39020 ft 487 kts
2026-05-04 07:38 0.45572 39.96620 39017 ft 487 kts
2026-05-04 07:38 0.52313 39.97224 39017 ft 487 kts
2026-05-04 07:39 0.59065 39.97828 39018 ft 487 kts
2026-05-04 07:39 0.65813 39.98432 39017 ft 487 kts
2026-05-04 07:40 0.72559 39.99035 39015 ft 486 kts
2026-05-04 07:40 0.79300 39.99638 39015 ft 486 kts
2026-05-04 07:41 0.86043 40.00241 39015 ft 486 kts
2026-05-04 07:41 0.92802 40.00847 39015 ft 487 kts
2026-05-04 07:42 0.99547 40.01452 39020 ft 488 kts
2026-05-04 07:42 1.06281 40.02059 39017 ft 488 kts
2026-05-04 07:43 1.13048 40.02671 39017 ft 488 kts
2026-05-04 07:43 1.19791 40.03281 39016 ft 488 kts
2026-05-04 07:44 1.26578 40.03894 39025 ft 488 kts
2026-05-04 07:44 1.33348 40.04506 39021 ft 488 kts
2026-05-04 07:45 1.40083 40.05114 39021 ft 488 kts
2026-05-04 07:45 1.46881 40.05728 39019 ft 488 kts
2026-05-04 07:46 1.53632 40.06339 39022 ft 489 kts
2026-05-04 07:46 1.60394 40.06950 39019 ft 489 kts
2026-05-04 07:47 1.67203 40.07565 39016 ft 489 kts
2026-05-04 07:49 1.94385 40.04760 39023 ft 497 kts 352°
2026-05-04 07:49 2.01181 40.03524 39023 ft 497 kts 353°
2026-05-04 07:50 2.07989 40.02305 39022 ft 497 kts 353°
2026-05-04 07:50 2.14816 40.01090 39022 ft 498 kts 353°
2026-05-04 07:51 2.21649 39.99872 39021 ft 498 kts 353°
2026-05-04 07:51 2.28441 39.98662 39024 ft 498 kts 353°
2026-05-04 07:52 2.35254 39.97447 39021 ft 498 kts 352°
2026-05-04 07:52 2.42062 39.96233 39029 ft 497 kts 352°
2026-05-04 07:54 2.69275 39.91268 39037 ft 497 kts 351°
2026-05-04 07:55 2.76078 39.89976 39029 ft 497 kts 352°
2026-05-04 07:55 2.82879 39.88689 39032 ft 497 kts 352°
2026-05-04 07:56 2.89654 39.87411 39032 ft 497 kts 352°
2026-05-04 07:56 2.96462 39.86127 39030 ft 496 kts 351°
2026-05-04 07:57 3.03210 39.84853 39031 ft 496 kts 351°
2026-05-04 07:57 3.09999 39.83572 39028 ft 496 kts 351°
2026-05-04 07:58 3.15640 39.82507 39033 ft 496 kts 351°
2026-05-04 07:58 3.22407 39.81229 39034 ft 496 kts 351°
2026-05-04 07:59 3.29194 39.79948 39039 ft 497 kts 351°
2026-05-04 07:59 3.35975 39.78668 39039 ft 497 kts 351°
2026-05-04 08:00 3.42820 39.77374 39041 ft 497 kts 351°
2026-05-04 08:02 3.70061 39.72228 39039 ft 499 kts 351°
2026-05-04 08:02 3.76852 39.70944 39038 ft 499 kts 351°
2026-05-04 08:03 3.83677 39.69654 39037 ft 499 kts 351°
2026-05-04 08:03 3.90501 39.68363 39033 ft 498 kts 351°
2026-05-04 08:04 3.97271 39.67083 39032 ft 498 kts 351°
2026-05-04 08:04 4.04088 39.65841 39034 ft 497 kts 352°
2026-05-04 08:05 4.10926 39.64697 39034 ft 497 kts 352°
2026-05-04 08:05 4.17753 39.63569 39032 ft 497 kts 352°
2026-05-04 08:06 4.24575 39.62432 39032 ft 497 kts 352°
2026-05-04 08:06 4.31395 39.61288 39033 ft 497 kts 352°
2026-05-04 08:08 4.58679 39.56701 39024 ft 498 kts 352°
2026-05-04 08:11 4.89461 39.51523 39034 ft 499 kts 352°
2026-05-04 08:11 4.99738 39.49793 39038 ft 499 kts 352°
2026-05-04 08:12 5.06591 39.48639 39046 ft 498 kts 352°
2026-05-04 08:12 5.13390 39.47494 39046 ft 498 kts 352°
2026-05-04 08:13 5.20231 39.46342 39049 ft 498 kts 352°
2026-05-04 08:13 5.27066 39.45191 39046 ft 498 kts 352°
2026-05-04 08:14 5.33902 39.44039 39052 ft 497 kts 352°
2026-05-04 08:16 5.61167 39.39442 39053 ft 497 kts 352°
2026-05-04 08:16 5.67854 39.37847 39054 ft 499 kts 345°
2026-05-04 08:17 5.74466 39.35719 39050 ft 499 kts 343°
2026-05-04 08:17 5.81062 39.33496 39050 ft 499 kts 343°
2026-05-04 08:19 6.07367 39.24663 39055 ft 497 kts 343°
2026-05-04 08:20 6.13937 39.22464 39057 ft 497 kts 343°
2026-05-04 08:20 6.20504 39.20265 39063 ft 497 kts 343°
2026-05-04 08:21 6.27063 39.18066 39069 ft 497 kts 343°
2026-05-04 08:21 6.33625 39.15867 39068 ft 497 kts 343°
2026-05-04 08:22 6.40190 39.13667 39080 ft 497 kts 343°
2026-05-04 08:24 6.66395 39.04876 39109 ft 496 kts 343°
2026-05-04 08:24 6.72954 39.02675 39107 ft 496 kts 343°
2026-05-04 08:25 6.79506 39.00475 39106 ft 496 kts 343°
2026-05-04 08:25 6.86005 38.98292 39116 ft 495 kts 343°
2026-05-04 08:27 7.12165 38.89498 39104 ft 495 kts 343°
2026-05-04 08:28 7.18660 38.87313 39105 ft 494 kts 343°
2026-05-04 08:28 7.25176 38.85120 39095 ft 493 kts 343°
2026-05-04 08:29 7.31709 38.82921 39083 ft 493 kts 343°
2026-05-04 08:31 7.57769 38.74143 39055 ft 494 kts 343°
2026-05-04 08:33 7.83824 38.65355 39045 ft 494 kts 343°
2026-05-04 08:35 8.09961 38.56527 39051 ft 497 kts 344°
2026-05-04 08:35 8.16586 38.54863 39052 ft 492 kts 356°
2026-05-04 08:37 8.36486 38.58359 39060 ft 487 kts 16°
2026-05-04 08:37 8.39771 38.59211 39058 ft 487 kts 16°
2026-05-04 08:38 8.46346 38.60887 39058 ft 487 kts 15°
2026-05-04 08:38 8.52930 38.62539 39056 ft 487 kts 15°
2026-05-04 08:40 8.75974 38.68301 39201 ft 487 kts 15°
2026-05-04 08:40 8.79225 38.69116 39242 ft 487 kts 15°
2026-05-04 08:41 8.85814 38.70767 39326 ft 487 kts 15°
2026-05-04 08:41 8.92399 38.72418 39399 ft 488 kts 15°
2026-05-04 08:42 8.98985 38.74070 39399 ft 488 kts 15°
2026-05-04 08:42 9.05582 38.75724 39398 ft 488 kts 15°
2026-05-04 08:43 9.12266 38.76939 39331 ft 490 kts
2026-05-04 08:43 9.15663 38.77143 39081 ft 490 kts
2026-05-04 08:43 9.19085 38.77277 39089 ft 491 kts
2026-05-04 08:44 9.25873 38.77449 39088 ft 491 kts
2026-05-04 08:46 9.52034 38.78116 39088 ft 490 kts
2026-05-04 08:46 9.58859 38.78302 39079 ft 490 kts
2026-05-04 08:47 9.65689 38.78488 39091 ft 490 kts
2026-05-04 08:47 9.72510 38.78674 39071 ft 490 kts
2026-05-04 08:48 9.79343 38.78859 39045 ft 490 kts
2026-05-04 08:48 9.86164 38.79045 39041 ft 490 kts
2026-05-04 08:49 9.92984 38.79231 39031 ft 490 kts
2026-05-04 08:50 10.16906 38.79885 39007 ft 492 kts
2026-05-04 08:51 10.23754 38.80072 39006 ft 492 kts
2026-05-04 08:51 10.30558 38.80257 39011 ft 492 kts
2026-05-04 08:52 10.37410 38.80445 39004 ft 492 kts
2026-05-04 08:52 10.44276 38.80632 39005 ft 493 kts
2026-05-04 08:54 10.71656 38.81381 39057 ft 493 kts
2026-05-04 08:55 10.78518 38.81569 39042 ft 493 kts
2026-05-04 08:55 10.85373 38.81757 39063 ft 493 kts
2026-05-04 09:01 11.57270 38.83733 39027 ft 494 kts
2026-05-04 09:01 11.64142 38.83922 39033 ft 494 kts
2026-05-04 09:02 11.70974 38.84111 39029 ft 494 kts
2026-05-04 09:02 11.77849 38.84300 39035 ft 493 kts
2026-05-04 09:03 11.84705 38.84489 39042 ft 493 kts
2026-05-04 09:03 11.91575 38.84679 39041 ft 493 kts
2026-05-04 09:04 11.98423 38.84868 39033 ft 493 kts
2026-05-04 09:04 12.05279 38.85057 39041 ft 494 kts
2026-05-04 09:05 12.12139 38.85247 39027 ft 494 kts
2026-05-04 09:05 12.19015 38.85437 39020 ft 494 kts
2026-05-04 09:06 12.25909 38.85628 39019 ft 494 kts
2026-05-04 09:08 12.53415 38.86395 38992 ft 495 kts
2026-05-04 09:08 12.60334 38.86589 38993 ft 496 kts
2026-05-04 09:09 12.67208 38.86781 38975 ft 497 kts
2026-05-04 09:09 12.74104 38.86974 38977 ft 497 kts
2026-05-04 09:10 12.81004 38.87168 38966 ft 497 kts
2026-05-04 09:10 12.87941 38.87362 38944 ft 497 kts
2026-05-04 09:11 12.94848 38.87546 38954 ft 498 kts
2026-05-04 09:11 13.01746 38.87676 38942 ft 498 kts
2026-05-04 09:12 13.08701 38.87791 38943 ft 497 kts
2026-05-04 09:14 13.36461 38.88282 38955 ft 500 kts
2026-05-04 09:14 13.43422 38.88408 38961 ft 500 kts
2026-05-04 09:15 13.50381 38.88534 38954 ft 500 kts
2026-05-04 09:15 13.57334 38.88659 38959 ft 500 kts
2026-05-04 09:17 13.88613 38.89222 38977 ft 501 kts
2026-05-04 09:18 13.95587 38.89348 38980 ft 499 kts
2026-05-04 09:18 14.02542 38.89474 38982 ft 500 kts
2026-05-04 09:19 14.09494 38.89573 38980 ft 501 kts
2026-05-04 09:19 14.16463 38.89644 38982 ft 501 kts
2026-05-04 09:20 14.23466 38.89713 38969 ft 501 kts
2026-05-04 09:20 14.30441 38.89787 38971 ft 501 kts
2026-05-04 09:21 14.37373 38.89862 38963 ft 501 kts
2026-05-04 09:21 14.44366 38.89939 38962 ft 501 kts
2026-05-04 09:22 14.51318 38.90009 38963 ft 501 kts
2026-05-04 09:22 14.58290 38.90026 38951 ft 502 kts 359°
2026-05-04 09:23 14.65310 38.90023 38951 ft 502 kts 360°
2026-05-04 09:23 14.72271 38.90024 38952 ft 502 kts 360°
2026-05-04 09:25 15.00254 38.90052 38988 ft 504 kts 359°
2026-05-04 09:26 15.07319 38.90059 38986 ft 505 kts 359°
2026-05-04 09:26 15.14346 38.90068 38995 ft 505 kts 359°
2026-05-04 09:27 15.21352 38.90075 38999 ft 505 kts 359°
2026-05-04 09:27 15.28385 38.90087 38998 ft 505 kts 360°
2026-05-04 09:28 15.35400 38.90268 38989 ft 505 kts
2026-05-04 09:28 15.42455 38.90551 38992 ft 506 kts
2026-05-04 09:29 15.49465 38.90828 38985 ft 506 kts
2026-05-04 09:29 15.56462 38.91087 38968 ft 505 kts
2026-05-04 09:30 15.63495 38.91340 38970 ft 505 kts
2026-05-04 09:30 15.70531 38.91592 38954 ft 504 kts
2026-05-04 09:31 15.77508 38.91842 38937 ft 503 kts
2026-05-04 09:31 15.84498 38.92093 38935 ft 502 kts
2026-05-04 09:32 15.90334 38.92303 38922 ft 502 kts
2026-05-04 09:34 16.18259 38.93310 38907 ft 502 kts
2026-05-04 09:34 16.25255 38.93563 38897 ft 502 kts
2026-05-04 09:35 16.32235 38.93816 38879 ft 502 kts
2026-05-04 09:35 16.39211 38.94068 38880 ft 501 kts
2026-05-04 09:37 16.67123 38.95079 38873 ft 503 kts
2026-05-04 09:38 16.74075 38.95331 38875 ft 503 kts
2026-05-04 09:38 16.81076 38.95586 38878 ft 504 kts
2026-05-04 09:39 16.88091 38.95841 38874 ft 504 kts
2026-05-04 09:39 16.95103 38.96097 38871 ft 504 kts
2026-05-04 09:40 17.02129 38.96353 38871 ft 504 kts
2026-05-04 09:40 17.09144 38.96608 38868 ft 504 kts
2026-05-04 09:42 17.37173 38.97632 38871 ft 505 kts
2026-05-04 09:43 17.44207 38.97889 38863 ft 505 kts
2026-05-04 09:43 17.51230 38.98141 38861 ft 505 kts
2026-05-04 09:44 17.58249 38.98392 38869 ft 505 kts 360°
2026-05-04 09:46 17.86317 38.99401 38853 ft 504 kts 359°
2026-05-04 09:46 17.93335 38.99653 38856 ft 503 kts 359°
2026-05-04 09:47 18.00290 38.99903 38859 ft 503 kts 359°
2026-05-04 09:49 18.28273 39.01107 38859 ft 503 kts
2026-05-04 09:51 18.52719 39.02482 38867 ft 504 kts
2026-05-04 09:51 18.59723 39.02870 38868 ft 504 kts
2026-05-04 09:52 18.66729 39.03258 38865 ft 504 kts 360°
2026-05-04 09:52 18.73746 39.03647 38866 ft 504 kts 360°
2026-05-04 09:53 18.80755 39.04036 38881 ft 504 kts 360°
2026-05-04 09:53 18.87768 39.04426 38882 ft 504 kts 360°
2026-05-04 09:54 18.94724 39.04813 38873 ft 504 kts 360°
2026-05-04 09:54 19.01738 39.05203 38878 ft 504 kts 360°
2026-05-04 09:55 19.08748 39.05584 38873 ft 503 kts 358°
2026-05-04 09:55 19.15644 39.04853 38880 ft 495 kts 344°
2026-05-04 09:56 19.22285 39.03127 38879 ft 494 kts 341°
2026-05-04 09:56 19.28923 39.01207 38879 ft 494 kts 341°
2026-05-04 09:57 19.35550 38.99277 38877 ft 494 kts 341°
2026-05-04 09:57 19.42192 38.97368 38887 ft 494 kts 341°
2026-05-04 09:58 19.48834 38.95471 38878 ft 494 kts 341°
2026-05-04 09:58 19.55480 38.93574 38878 ft 494 kts 341°
2026-05-04 10:00 19.82009 38.85979 38881 ft 494 kts 341°
2026-05-04 10:04 20.28373 38.72641 38885 ft 493 kts 340°
2026-05-04 10:04 20.35001 38.70728 38876 ft 493 kts 340°
2026-05-04 10:05 20.41625 38.68813 38878 ft 493 kts 340°
2026-05-04 10:05 20.48264 38.66893 38877 ft 493 kts 340°
2026-05-04 10:06 20.54841 38.64989 38882 ft 493 kts 340°
2026-05-04 10:06 20.61461 38.63071 38878 ft 493 kts 339°
2026-05-04 10:08 20.84344 38.56444 38888 ft 494 kts 341°
2026-05-04 10:08 20.91175 38.55148 38875 ft 499 kts 345°
2026-05-04 10:09 20.98064 38.54062 38875 ft 500 kts 346°
2026-05-04 10:09 21.04941 38.53018 38878 ft 500 kts 346°
2026-05-04 10:10 21.11857 38.51959 38890 ft 500 kts 346°
2026-05-04 10:10 21.18751 38.50891 38884 ft 501 kts 346°
2026-05-04 10:11 21.25626 38.49821 38886 ft 502 kts 346°
2026-05-04 10:11 21.32532 38.48746 38889 ft 501 kts 346°
2026-05-04 10:12 21.39470 38.47665 38898 ft 502 kts 346°
2026-05-04 10:12 21.46356 38.46592 38887 ft 502 kts 345°
2026-05-04 10:13 21.53282 38.45510 38888 ft 502 kts 345°
2026-05-04 10:13 21.60181 38.44432 38892 ft 502 kts 345°
2026-05-04 10:14 21.67093 38.43352 38902 ft 502 kts 345°
2026-05-04 10:16 21.94799 38.39009 38891 ft 503 kts 345°
2026-05-04 10:16 22.01734 38.37920 38889 ft 503 kts 345°
2026-05-04 10:17 22.08637 38.36833 38891 ft 503 kts 345°
2026-05-04 10:19 22.36331 38.32466 38889 ft 503 kts 345°
2026-05-04 10:19 22.42093 38.31556 38895 ft 503 kts 345°
2026-05-04 10:20 22.50147 38.30281 38900 ft 503 kts 345°
2026-05-04 10:20 22.55924 38.29366 38893 ft 503 kts 345°
2026-05-04 10:21 22.62832 38.28271 38894 ft 503 kts 345°
2026-05-04 10:21 22.69781 38.27168 38894 ft 503 kts 345°
2026-05-04 10:22 22.80140 38.25522 38892 ft 503 kts 344°
2026-05-04 10:23 22.87061 38.24421 38898 ft 503 kts 344°
2026-05-04 10:25 23.14757 38.20003 38907 ft 504 kts 344°
2026-05-04 10:25 23.21702 38.18892 38905 ft 504 kts 344°
2026-05-04 10:26 23.28631 38.17784 38897 ft 503 kts 344°
2026-05-04 10:26 23.35548 38.16676 38900 ft 502 kts 344°
2026-05-04 10:27 23.42456 38.15567 38899 ft 502 kts 344°
2026-05-04 10:27 23.49359 38.14458 38897 ft 502 kts 344°
2026-05-04 10:28 23.56283 38.13345 38906 ft 501 kts 343°
2026-05-04 10:28 23.63155 38.12240 38898 ft 500 kts 343°
2026-05-04 10:29 23.70026 38.11132 38898 ft 500 kts 343°
2026-05-04 10:29 23.76943 38.10016 38897 ft 500 kts 343°
2026-05-04 10:30 23.83816 38.08907 38888 ft 500 kts 343°
2026-05-04 10:30 23.90677 38.07798 38860 ft 499 kts 343°
2026-05-04 10:31 23.97548 38.06686 38845 ft 499 kts 343°
2026-05-04 10:32 24.21375 38.02099 38829 ft 492 kts 337°
2026-05-04 10:33 24.28014 38.00256 38831 ft 492 kts 337°
2026-05-04 10:33 24.34625 37.98396 38843 ft 491 kts 336°
2026-05-04 10:34 24.41227 37.96543 38841 ft 492 kts 336°
2026-05-04 10:34 24.47906 37.94674 38858 ft 492 kts 336°
2026-05-04 10:35 24.54504 37.92828 38873 ft 492 kts 336°
2026-05-04 10:35 24.61148 37.90968 38883 ft 492 kts 336°
2026-05-04 10:36 24.67761 37.89114 38898 ft 492 kts 336°
2026-05-04 10:36 24.74383 37.87255 38896 ft 492 kts 336°
2026-05-04 10:37 24.81055 37.85380 38912 ft 492 kts 336°
2026-05-04 10:37 24.87684 37.83516 38928 ft 491 kts 336°
2026-05-04 10:39 25.10874 37.76974 38947 ft 492 kts 336°
2026-05-04 10:40 25.17464 37.75111 38950 ft 492 kts 336°
2026-05-04 10:40 25.24099 37.73233 38944 ft 492 kts 336°
2026-05-04 10:41 25.30732 37.71353 38950 ft 492 kts 336°
2026-05-04 10:41 25.37351 37.69476 38938 ft 491 kts 336°
2026-05-04 10:42 25.43965 37.67597 38943 ft 493 kts 336°
2026-05-04 10:42 25.50641 37.65696 38943 ft 494 kts 335°
2026-05-04 10:43 25.57319 37.63795 38938 ft 495 kts 335°
2026-05-04 10:45 25.83952 37.56192 38936 ft 495 kts 335°
2026-05-04 10:45 25.90625 37.54283 38957 ft 495 kts 335°
2026-05-04 10:46 25.97309 37.52365 38960 ft 496 kts 335°
2026-05-04 10:46 26.03993 37.50445 38957 ft 495 kts 335°
2026-05-04 10:47 26.10490 37.48217 38955 ft 490 kts 331°
2026-05-04 10:47 26.16932 37.45720 38967 ft 489 kts 330°
2026-05-04 10:49 26.42778 37.35848 38978 ft 491 kts 331°
2026-05-04 10:50 26.49234 37.33401 39004 ft 491 kts 331°
2026-05-04 10:52 26.75096 37.23559 39001 ft 491 kts 331°
2026-05-04 10:52 26.81554 37.21095 39006 ft 490 kts 331°
2026-05-04 10:54 27.07389 37.11201 39014 ft 490 kts 331°
2026-05-04 10:56 27.33161 37.01282 39028 ft 489 kts 330°
2026-05-04 10:57 27.39589 36.98804 39038 ft 488 kts 330°